Weather History for South Bend, IN

Change the Weather History Date:

Friday, February 8, 2013

  Actual Average Record
Temperature  
Mean Temperature 30 °F 26 °F  
Max Temperature 34 °F 33 °F 66 °F (1925)
Min Temperature 25 °F 19 °F -14 °F (1895)
Degree Days  
Heating Degree Days 35 39  
Month to date heating degree days 341 317  
Since 1 July heating degree days 3689 3965  
Cooling Degree Days 0 0  
Month to date cooling degree days 0 0  
Year to date cooling degree days 0 0  
Moisture  
Dew Point 24 °F    
Average Humidity 80    
Maximum Humidity 96    
Minimum Humidity 63    
Precipitation  
Precipitation 0.01 in 0.07 in 0.68 in (1987)
Month to date precipitation 0.78 0.50  
Year to date precipitation 5.78 2.79  
Sea Level Pressure  
Sea Level Pressure 30.13 in    
Wind  
Wind Speed 15 mph (NNW)    
Max Wind Speed 28 mph    
Max Gust Speed 36 mph    
Visibility 8 miles    
Events Snow    
T = Trace of Precipitation, MM = Missing Value Source: NWS Daily Summary

Daily Weather History Graph

Daily Weather History Graph

Search for Another Location

Airport:

Trip Planner

Search our weather history database for the weather conditions in past years. The results will help you decide how hot, cold, wet, or windy it might be!

Date:

Astronomy

Feb. 08, 2013 Rise Set
Actual Time 7:49 AM EST 6:10 PM EST
Civil Twilight 7:20 AM EST 6:39 PM EST
Nautical Twilight 6:47 AM EST 7:11 PM EST
Astronomical Twilight 6:15 AM EST 7:44 PM EST
Moon 6:18 AM EST (2/8) 4:42 PM EST (2/8)
Length of Visible Light 11h 18m
Length of Day
10h 20m
Waning Crescent, 3% of the Moon is Illuminated
Feb 8
Waning Crescent
Feb 10
New
Feb 17
First Quarter
Feb 25
Full
Mar 4
Last Quarter

Hourly Weather History & Observations

Time (EST) Temp. Windchill Dew Point Humidity Pressure Visibility Wind Dir Wind Speed Gust Speed Precip Events Conditions
12:22 AM 33.8 °F 27.0 °F 32.0 °F 93% 29.83 in 1.8 mi NW 8.1 mph - 0.00 in   Overcast
12:44 AM 33.8 °F 25.8 °F 32.0 °F 93% 29.83 in 1.2 mi NW 10.4 mph - N/A Snow Light Snow
12:54 AM 33.1 °F 24.9 °F 32.0 °F 96% 29.86 in 1.8 mi NW 10.4 mph - 0.01 in   Overcast
1:54 AM 33.1 °F 23.9 °F 32.0 °F 96% 29.86 in 1.5 mi NW 12.7 mph - N/A   Overcast
2:21 AM 33.8 °F 24.3 °F 32.0 °F 93% 29.85 in 2.5 mi NW 13.8 mph - N/A   Overcast
2:45 AM 33.8 °F 23.9 °F 30.2 °F 87% 29.86 in 3.0 mi NW 15.0 mph - N/A   Overcast
2:54 AM 34.0 °F 23.8 °F 30.9 °F 89% 29.88 in 4.0 mi NW 16.1 mph 23.0 mph N/A   Overcast
3:54 AM 33.1 °F 21.5 °F 30.0 °F 89% 29.90 in 5.0 mi NNW 19.6 mph - N/A   Overcast
4:54 AM 33.1 °F 20.6 °F 28.0 °F 82% 29.94 in 9.0 mi NNW 23.0 mph 35.7 mph N/A   Overcast
5:06 AM 32.0 °F 21.2 °F 28.4 °F 87% 29.93 in 10.0 mi NNW 16.1 mph 32.2 mph N/A   Overcast
5:54 AM 32.0 °F 20.1 °F 27.0 °F 82% 29.99 in 8.0 mi NNW 19.6 mph 27.6 mph 0.00 in   Overcast
6:54 AM 30.9 °F 19.1 °F 25.0 °F 79% 30.03 in 7.0 mi North 18.4 mph 25.3 mph 0.00 in   Overcast
7:54 AM 30.0 °F 18.3 °F 25.0 °F 82% 30.07 in 10.0 mi NNW 17.3 mph - N/A   Overcast
8:14 AM 30.2 °F 18.1 °F 24.8 °F 80% 30.06 in 10.0 mi North 18.4 mph - N/A   Overcast
8:54 AM 30.9 °F 19.4 °F 25.0 °F 79% 30.10 in 10.0 mi North 17.3 mph 25.3 mph N/A   Overcast
9:54 AM 30.0 °F 18.3 °F 24.1 °F 79% 30.15 in 10.0 mi North 17.3 mph - N/A   Overcast
10:01 AM 30.2 °F 18.9 °F 24.8 °F 80% 30.13 in 10.0 mi North 16.1 mph - N/A   Overcast
10:54 AM 30.9 °F 19.8 °F 24.1 °F 76% 30.18 in 10.0 mi North 16.1 mph - N/A   Overcast
11:30 AM 30.2 °F 18.5 °F 23.0 °F 75% 30.18 in 10.0 mi North 17.3 mph - N/A   Overcast
11:54 AM 30.0 °F 19.1 °F 21.9 °F 72% 30.22 in 10.0 mi North 15.0 mph 23.0 mph N/A   Overcast
12:54 PM 30.0 °F 19.1 °F 23.0 °F 75% 30.23 in 10.0 mi NNW 15.0 mph - N/A   Overcast
1:46 PM 32.0 °F 22.1 °F 23.0 °F 69% 30.21 in 10.0 mi North 13.8 mph - N/A   Scattered Clouds
1:54 PM 30.9 °F 19.8 °F 21.9 °F 69% 30.24 in 10.0 mi North 16.1 mph - N/A   Partly Cloudy
2:54 PM 32.0 °F 20.8 °F 21.9 °F 66% 30.25 in 10.0 mi North 17.3 mph - N/A   Partly Cloudy
3:54 PM 32.0 °F 21.2 °F 21.9 °F 66% 30.27 in 10.0 mi North 16.1 mph - N/A   Scattered Clouds
4:16 PM 32.0 °F 21.6 °F 21.2 °F 64% 30.25 in 10.0 mi North 15.0 mph - N/A   Mostly Cloudy
4:54 PM 32.0 °F 22.5 °F 21.9 °F 66% 30.29 in 10.0 mi North 12.7 mph - N/A   Overcast
5:04 PM 32.0 °F 20.8 °F 21.2 °F 64% 30.26 in 10.0 mi North 17.3 mph - N/A   Overcast
5:54 PM 30.9 °F 20.2 °F 21.0 °F 67% 30.30 in 10.0 mi North 15.0 mph - N/A   Overcast
6:54 PM 30.9 °F 19.1 °F 19.9 °F 64% 30.32 in 10.0 mi North 18.4 mph - N/A   Overcast
7:54 PM 30.0 °F 20.5 °F 19.9 °F 66% 30.35 in 10.0 mi NNW 11.5 mph - N/A   Overcast
8:54 PM 28.9 °F 20.4 °F 19.0 °F 67% 30.35 in 10.0 mi North 9.2 mph - N/A   Overcast
9:54 PM 28.9 °F 22.8 °F 19.9 °F 69% 30.38 in 10.0 mi NNW 5.8 mph - N/A   Overcast
10:44 PM 26.6 °F 21.2 °F 19.4 °F 74% 30.35 in 10.0 mi North 4.6 mph - N/A   Scattered Clouds
10:54 PM 26.1 °F 19.4 °F 18.0 °F 71% 30.38 in 10.0 mi North 5.8 mph - N/A   Clear
11:30 PM 26.6 °F 22.6 °F 17.6 °F 69% 30.35 in 10.0 mi NNE 3.5 mph - N/A   Mostly Cloudy
11:54 PM 27.0 °F 23.0 °F 19.9 °F 75% 30.40 in 10.0 mi NNW 3.5 mph - N/A   Overcast